Terug naar catalogus

NIMBUS 2 DEB

ActiefLEO
NORAD 42442·DEBRIS·🇺🇸 United States

Gelanceerd May 15, 1966 vanaf Vandenberg Space Force Base

Loading…

Volgende Passages (komende 24 uur)

TLE

VerouderendSource: Space-Track

Epoch: Sep 12, 2026, 09:36 UTC

1 42442U 66040BV  26255.40008270  .00003592  00000-0  50242-2 0  9997
2 42442 100.3133 110.0870 0048844 312.9679  46.7367 13.57692044244825

Volg NIMBUS 2 DEB in realtime met AllMySat

Download on the App Store